Preview of NWS' New Version of Forecast
This preview is not operational and should not be used for support decisions.

Regional Weather Roundup (RWR)

Issued by Grand Forks, ND (FGF)

                            
000
ASUS43 KFGF 241631
RWRFGF
PRAIRIE TO PINES  WEATHER ROUNDUP
NATIONAL WEATHER SERVICE EASTERN NORTH DAKOTA/GRAND FORKS ND
1100 AM CDT WED APR 24 2019

 **SATELLITE DATA USED TO AUGMENT SKY COVER AT AUTOMATED STATIONS**
 *****  WEATHER ACROSS EASTERN NORTH DAKOTA  *****
  
CITY           SKY/WX    TMP DP  RH WIND       PRES   REMARKS
GRAND FORKS    FAIR      65  35  33 N12       29.68R                  
GRAND FRKS AFB SUNNY     64  32  29 NW10      29.71S                  
GRAND FRKS NWS   N/A     65  38  36 N12       29.66R                  
DEVILS LAKE    FAIR      61  40  45 NW14      29.74S                  
FARGO          FAIR      63  45  51 W6        29.69F                  
WAHPETON ARPT  FAIR      64  43  45 W13       29.73S                  
$$

 ***** WEATHER ACROSS CENTRAL AND WESTERN NORTH DAKOTA  *****
  
CITY           SKY/WX    TMP DP  RH WIND       PRES   REMARKS
BISMARCK       FAIR      64  40  41 NW7       29.79S                  
MINOT          FAIR      63  36  36 NW20      29.79R                  
JAMESTOWN      FAIR      67  41  38 W10       29.72F                  
MINOT AFB      FAIR      62  37  40 NW18G25   29.77S                  
GARRISON         N/A     62  39  42 N15       29.79S                  
WILLISTON      FAIR      59  39  47 N10       29.86R                  
DICKINSON      FAIR      62  39  42 NW12      29.82S                  
HETTINGER      FAIR      63  39  41 W20       29.86S                  
$$

 *****  OTHER AIRPORT OBSERVATIONS IN OUR AREA  *****
  
CITY           SKY/WX    TMP DP  RH WIND       PRES   REMARKS
WALHALLA       FAIR      64  39  39 NW14G25   29.68S                  
GRAFTON AIRPOR FAIR      64  39  39 NW10      29.70S                  
VALLEY CITY AR FAIR      64  43  45 W8        29.73S                  
CANDO          FAIR      66  36  32 NW15G21   29.74F                  
CAVALIER APRT  FAIR      64  36  34 NW14G23   29.67S                  
GWINNER          N/A     66  46  48 SW12      29.72F                  
SHEYENNE NWR     N/A     69  44  39 W9        29.95S                  
ROLLA          FAIR      63  30  29 NW18G26   29.73S                  
 ***** THE ABOVE OBSERVATIONS ARE NON NWS ARE NOT QUALITY
       CONTROLLED AND MAY MIS-REPORT RAIN FOR SNOW...
$$

  *****  WEATHER ACROSS NORTHERN MINNESOTA  *****     
  
CITY           SKY/WX    TMP DP  RH WIND       PRES   REMARKS
FLAG ISLAND    FAIR      55  32  41 NW15      29.61R                  
WARROAD        FAIR      63  37  39 NW13      29.64S                  
ROSEAU         FAIR      63  43  48 W10       29.64F                  
HALLOCK        FAIR      63  36  36 NW13      29.67S                  
THF RVR FALLS  FAIR      61  43  51 NW9       29.68F                  
BAUDETTE       PTSUNNY   63  42  46 W9        29.63S                  
WASKISH        FAIR      55  45  67 SW10      29.66F                  
CROOKSTON      FAIR      63  43  48 N10       29.69R                  
STEPHEN NDAWN    N/A     63  36  36 N12         N/A                   
GREENBUSH NDAW   N/A     63  34  34 N10         N/A                   
$$
  *****  WEATHER ACROSS CENTRAL AND WEST MINNESOTA  *****     
  
CITY           SKY/WX    TMP DP  RH WIND       PRES   REMARKS
FOSSTON        FAIR      61  45  55 SW7       29.69F                  
BEMIDJI        FAIR      65  42  42 SW13G18   29.67S                  
PARK RAPIDS    FAIR      64  40  41 SW13      29.69F                  
ELBOW LAKE     FAIR      64  46  51 SW9       29.74F                  
WADENA         FAIR      63  43  48 SW10G16   29.71F                  
DETROIT LAKES  FAIR      63  43  48 W7        29.72F                  
MOORHEAD       FAIR      63  45  51 W5        29.71S                  
FERGUS FALLS   FAIR      64  46  52 SW8       29.70S HAZE             
MORRIS MN      FAIR      66  43  42 W10       29.71R                  
STAPLES        FAIR      64  37  36 SW12G18   29.72F                  
$$
  *****  WEATHER ELSEWHERE ACROSS MINNESOTA  *****     
  
CITY           SKY/WX    TMP DP  RH WIND       PRES   REMARKS
DULUTH         PTSUNNY   57  38  48 SW17G23   29.75F                  
INTRNTL FALLS  CLOUDY    55  48  77 SW6       29.65S                  
ELY            LGT RAIN  54  37  54 SW10      29.70F                  
CLOQUET        CLOUDY    57  34  41 S18       29.75F                  
WHEATON        FAIR      70  39  32 W9        29.75                   
BRAINERD       CLOUDY    61  36  39 S18       29.74F                  
HIBBING        CLOUDY    55  37  50 S12G18    29.70F                  
ALEXANDRIA     FAIR      64  40  41 SW14      29.76F                  
SAINT CLOUD    CLOUDY    57  37  47 S14       29.80S                  
MINNEAPOLIS    PTSUNNY   63  37  38 SW13G24   29.85F                  
$$

  *****  WEATHER ACROSS SOUTH DAKOTA  *****
  
CITY           SKY/WX    TMP DP  RH WIND       PRES   REMARKS
SIOUX FALLS    FAIR      66  38  35 SW15G28   29.83F                  
BROOKINGS      NOT AVBL                                               
WATERTOWN      FAIR      63  41  44 MISG      29.79F                  
HURON          FAIR      64  43  46 S6        29.80F                  
SISSETON         N/A     69  44  40 W14       29.73R                  
ABERDEEN       FAIR      67  47  48 W8        29.78S                  
MITCHELL       FAIR      63  42  46 S7        29.82F                  
PIERRE         FAIR      63  47  55 SW8       29.80S                  
MOBRIDGE       FAIR      69  47  45 W7        29.77S                  
RAPID CITY     PTSUNNY   63  41  44 NW22G31   29.91S                  
$$

  *****  SOME WEATHER IN NEARBY STATES *****
  
CITY           SKY/WX    TMP DP  RH WIND       PRES   REMARKS
GLASGOW MT     FAIR      56  37  49 CALM      29.91F                  
GREAT FALLS MT FAIR      53  38  56 VRB5      29.97F                  
CHEYENNE WY    CLOUDY    59  34  39 NW12      30.03F                  
SCOTTSBLUFF NE FAIR      56  44  64 W8        29.96S                  
OMAHA NE       FAIR      64  46  52 CALM      29.92F                  
DES MOINES IA  CLOUDY    55  47  74 S3        29.95S                  
DAVENPORT IA   LGT RAIN  53  40  61 SE9       30.01S                  
CHICAGO IL     PTSUNNY   57  34  41 SE7       30.02S                  
EAU CLAIRE WI  FAIR      65  36  34 S20       29.88F                  
LA CROSSE WI   FAIR      64  42  44 S14       29.93F                  
$$

  *****  SOME NATIONAL WEATHER *****
  
CITY           SKY/WX    TMP DP  RH WIND       PRES   REMARKS
LA GUARDIA NY  FAIR      62  38  40 NW14      29.77S                  
RALEIGH NC     PTSUNNY   79  56  45 VRB7      29.94S                  
ATLANTA GA     FAIR      77  54  44 W12       30.05F                  
NEW ORLEANS LA CLOUDY    75  67  76 SE9       30.03S                  
OKLAHOMA CITY  CLOUDY    57  53  86 NE6       29.95S                  
ALBUQUERQUE NM FAIR      54  43  66 NW7       30.08F                  
SALT LAKE CITY PTSUNNY   60  40  47 S5        30.10S                  
LOS ANGELES CA FAIR      62  56  80 S7        30.02R HAZE             
BOISE ID       PTSUNNY   56  50  80 CALM      30.11S                  
SEATTLE WA     PTSUNNY   49  40  71 W3        30.36R                  
$$

*** WEATHER ACROSS MANITOBA...SASKATCHEWAN AND ONTARIO ***
                ***ONTARIO***
  
CITY           SKY/WX    TMP DP  RH WIND       PRES   REMARKS
GERALDTON      LGT RAIN  37  28  70 S8        29.83S FOG              
THUNDER BAY    LGT RAIN  39  34  81 E12       29.81F                  
SIOUX LOOKOUT  PTSUNNY   57  39  51 W12       29.58F                  
TORONTO        PTSUNNY   46  34  61 NW14G22   29.94S                  
BIG TROUT LK   MOSUNNY   45  39  81 S13       29.50F                  
PICKLE LAKE    PTSUNNY   46  37  71 S12G18    29.58F                  
DRYDEN         MOSUNNY   59  41  51 SW13      29.57F                  
KENORA         LGT RAIN  55  41  58 W8G20     29.61R                  
$$      
                *** MANITOBA***
  
CITY           SKY/WX    TMP DP  RH WIND       PRES   REMARKS
BRANDON        MOSUNNY   61  34  36 W20G29    29.70R                  
DAUPHIN        PTSUNNY   63  32  31 N13G18    29.68S                  
ISLAND LAKE    LGT RAIN  52  41  66 NW7       29.51                   
PILOT MOUND      N/A     64  37  36 NW16        N/A                   
THE PAS        NOT AVBL                                               
THOMPSON       PTSUNNY   50  36  57 W18G24    29.46S                  
WINNIPEG       PTSUNNY   61  37  41 W16G23    29.64S                  
LYNN LAKE      LGT RAIN  41  39  93 W10G17    29.49R                  
CHURCHILL      CLOUDY    41  39  93 W12       29.30S FOG              
GILLAM         MOSUNNY   52  39  62 W10G17    29.40F                  
$$
                ***SASKATCHEWAN***
  
CITY           SKY/WX    TMP DP  RH WIND       PRES   REMARKS
ESTEVAN        SUNNY     57  37  47 NW14G20   29.82S                  
KINDERSLEY     MOSUNNY   57  16  19 NW18G28   29.90F                  
LLOYDMINSTER   MOSUNNY   50  21  32 NW15G21   29.87F                  
PRINCE ALBERT  SUNNY     55  18  22 NW18G24   29.80F                  
REGINA         MOSUNNY   55  32  41 NW14      29.85S                  
YORKTON        SUNNY     57  32  38 NW13G20   29.76F                  
N. BATTLEFORD  SUNNY     54  23  30 W17       29.88F                  
LA RONGE       SUNNY     52  27  37 W16G26    29.70F                  
SASKATOON      MOSUNNY   55  27  33 NW12G20   29.86F                  
SWIFT CURRENT  SUNNY     52  37  58 NW8       29.89S                  
$$
NOTE: THESE ARE AUTOMATED STATIONS WITH LIMITED QUALITY CONTROL
      "FAIR" INDICATES FEW OR NO CLOUDS BELOW 12,000 FEET WITH NO
      SIGNIFICANT WEATHER AND/OR OBSTRUCTIONS TO VISIBILITY.
      SKY/WX - SKY CONDITION AND SIGNIFICANT WEATHER.
      TMP - AIR TEMPERATURE.    DP   - DEWPOINT TEMPERATURE.
      RH  - RELATIVE HUMIDITY.  PRES - PRESSURE.
      HX  - HEAT INDEX.         WCI  - WIND CHILL INDEX.
$